Regional Weather Roundup
Issued by NWS

Home | Current Version | Previous Version | Text Only | Print | Product List | Glossary On
Versions: 1 2 3 4 5 6 7 8 9 10 11 12 13 14 15 16 17 18 19 20 21 22 23 24 25 26 27 28 29 30 31 32 33 34 35 36 37 38 39 40 41 42 43 44 45 46 47 48 49 50
000
ASUS44 KJAN 022303
RWRMS

MISSISSIPPI HOURLY WEATHER ROUNDUP
NATIONAL WEATHER SERVICE JACKSON MS
600 PM CDT SUN AUG 02 2015

NOTE: "FAIR: INDICATES FEW OR NO CLOUDS BELOW 12,000 FEET WITH NO
SIGNIFICANT WEATHER AND/OR OBSTRUCTIONS TO VISIBILITY.

MSZ001>002-007>008-010>013-018>021-025>028-034>036-030000-
NORTHWEST MISSISSIPPI

CITY           SKY/WX    TMP DP  RH WIND       PRES   REMARKS
CLARKSDALE     FAIR      91  68  46 NW6       29.90F HX  95
CLEVELAND      FAIR      89  69  51 NW8       29.88F HX  94
GREENWOOD      SUNNY     92  67  43 N5        29.88F HX  95
GREENVILLE     SUNNY     93  70  46 N6        29.88F HX  99
OXFORD         FAIR      88  66  48 CALM      29.92F HX  90
TUNICA         CLEAR     91  64  40 NW6       29.90F HX  93
$$

MSZ003>006-009-014>017-022>024-029>033-037>039-030000-
NORTHEAST MISSISSIPPI

CITY           SKY/WX    TMP DP  RH WIND       PRES   REMARKS
COLUMBUS AFB   SUNNY     93  65  39 N9        29.88F HX  95
CORINTH        FAIR      88  63  42 NE5       29.90F
GOLDN TRIANGLE MOSUNNY   95  57  28 N9        29.88F HX  94
STARKVILLE     FAIR      91  59  33 N5        29.89F HX  90
TUPELO         SUNNY     92  64  39 N7        29.89F HX  93
$$

MSZ040-058-030000-
CENTRAL MISSISSIPPI

CITY           SKY/WX    TMP DP  RH WIND       PRES   REMARKS
JACKSON INTL   MOSUNNY   98  58  26 NE13G18   29.86F HX  97
JACKSON HAWKNS SUNNY     96  57  27 NE6       29.87F HX  95
MERIDIAN KEY   SUNNY     94  56  27 VRB3      29.87F HX  92
MERIDIAN NAS   PTSUNNY   94  62  34 E3        29.88S HX  94
VICKSBURG      SUNNY     95  64  35 N9        29.87F HX  97
$$

MSZ059>079-030000-
SOUTH MISSISSIPPI

CITY           SKY/WX    TMP DP  RH WIND       PRES   REMARKS
BROOKHAVEN     FAIR      93  64  38 CALM      29.88F HX  95
HATTIESBURG    SUNNY     95  64  35 E6        29.86F HX  97
MCCOMB         MOSUNNY   92  68  45 SE6       29.87S HX  96
NATCHEZ        MOSUNNY   91  66  43 N6        29.87F HX  94
PINE BELT      SUNNY     93  57  29 E6        29.89S HX  92
$$

MSZ080>082-030000-
COASTAL MISSISSIPPI

CITY           SKY/WX    TMP DP  RH WIND       PRES   REMARKS
BAY ST LOUIS   SUNNY     91  63  38 S8        29.86  HX  92
BILOXI         SUNNY     88  76  67 SW8       29.85F HX  99
PASCAGOULA     SUNNY     89  77  67 SW6       29.85F HX 101
GULFPORT       PTSUNNY   89  74  60 VRB5      29.84F HX  98
$$



USA.gov is the U.S. government's official web portal to all federal, state and local government web resources and services.